Time,TemperatureF,DewpointF,PressureIn,WindDirection,WindDirectionDegrees,WindSpeedMPH,WindSpeedGustMPH,Humidity,HourlyPrecipIn,Conditions,Clouds,dailyrainin,SoftwareType,DateUTC
2013-10-09 00:03:00,38.7,35.5,29.07,SSW,195,19.0,27.0,88,0.00,,,0.00,Wunderground v.1.15,2013-10-09 08:03:00,
2013-10-09 00:09:00,38.7,35.5,29.07,SSW,201,21.0,27.0,88,0.00,,,0.00,Wunderground v.1.15,2013-10-09 08:09:00,
2013-10-09 00:14:00,38.7,35.5,29.07,SSW,210,21.0,27.0,88,0.00,,,0.00,Wunderground v.1.15,2013-10-09 08:14:00,
2013-10-09 00:19:00,38.7,35.5,29.07,SSW,206,22.0,22.0,88,0.00,,,0.00,Wunderground v.1.15,2013-10-09 08:19:00,
2013-10-09 00:25:00,38.7,35.5,29.08,SSW,210,21.0,27.0,88,0.00,,,0.00,Wunderground v.1.15,2013-10-09 08:25:00,
2013-10-09 00:31:00,38.8,35.3,29.08,SW,214,20.0,27.0,87,0.00,,,0.00,Wunderground v.1.15,2013-10-09 08:31:00,
2013-10-09 00:37:00,38.7,35.2,29.08,SW,223,20.0,27.0,87,0.00,,,0.00,Wunderground v.1.15,2013-10-09 08:37:00,
2013-10-09 00:42:00,38.8,34.7,29.08,SW,214,19.0,30.0,85,0.00,,,0.00,Wunderground v.1.15,2013-10-09 08:42:00,
2013-10-09 00:48:00,38.8,34.7,29.08,SSW,212,21.0,30.0,85,0.00,,,0.00,Wunderground v.1.15,2013-10-09 08:48:00,
2013-10-09 00:53:00,38.8,34.7,29.09,SW,221,22.0,31.0,85,0.00,,,0.00,Wunderground v.1.15,2013-10-09 08:53:00,
2013-10-09 00:59:00,38.7,34.6,29.09,SSW,210,22.0,31.0,85,0.00,,,0.00,Wunderground v.1.15,2013-10-09 08:59:00,
2013-10-09 01:04:00,38.7,34.9,29.10,South,188,20.0,27.0,86,0.00,,,0.00,Wunderground v.1.15,2013-10-09 09:04:00,
2013-10-09 01:10:00,38.7,34.9,29.10,SSW,207,19.0,27.0,86,0.00,,,0.00,Wunderground v.1.15,2013-10-09 09:10:00,
2013-10-09 01:15:00,38.7,34.6,29.10,SW,221,19.0,27.0,85,0.00,,,0.00,Wunderground v.1.15,2013-10-09 09:15:00,
2013-10-09 01:22:00,38.7,34.3,29.11,SW,219,20.0,27.0,84,0.00,,,0.00,Wunderground v.1.15,2013-10-09 09:22:00,
2013-10-09 01:27:00,38.7,34.6,29.11,SW,219,19.0,27.0,85,0.00,,,0.00,Wunderground v.1.15,2013-10-09 09:27:00,
2013-10-09 01:33:00,38.8,34.4,29.12,SSW,208,20.0,27.0,84,0.00,,,0.00,Wunderground v.1.15,2013-10-09 09:33:00,
2013-10-09 01:38:00,38.9,34.5,29.11,SSW,211,21.0,27.0,84,0.00,,,0.00,Wunderground v.1.15,2013-10-09 09:38:00,
2013-10-09 01:44:00,38.9,34.5,29.12,SSW,195,21.0,27.0,84,0.00,,,0.00,Wunderground v.1.15,2013-10-09 09:44:00,
2013-10-09 01:49:00,38.9,34.2,29.13,South,188,20.0,20.0,83,0.00,,,0.00,Wunderground v.1.15,2013-10-09 09:49:00,
2013-10-09 01:55:00,38.9,34.2,29.13,SW,214,20.0,27.0,83,0.00,,,0.00,Wunderground v.1.15,2013-10-09 09:55:00,
2013-10-09 02:00:00,38.8,34.1,29.14,SW,234,17.0,27.0,83,0.00,,,0.00,Wunderground v.1.15,2013-10-09 10:00:00,
2013-10-09 02:06:00,38.7,33.7,29.14,SSW,199,16.0,27.0,82,0.00,,,0.00,Wunderground v.1.15,2013-10-09 10:06:00,
2013-10-09 02:11:00,38.7,34.0,29.14,SSW,192,18.0,27.0,83,0.00,,,0.00,Wunderground v.1.15,2013-10-09 10:11:00,
2013-10-09 02:17:00,38.6,33.9,29.14,SSW,192,18.0,27.0,83,0.00,,,0.00,Wunderground v.1.15,2013-10-09 10:17:00,
2013-10-09 02:23:00,38.6,33.9,29.15,SSW,209,20.0,27.0,83,0.00,,,0.00,Wunderground v.1.15,2013-10-09 10:23:00,
2013-10-09 02:28:00,38.5,33.8,29.15,SSW,211,22.0,27.0,83,0.00,,,0.00,Wunderground v.1.15,2013-10-09 10:28:00,
2013-10-09 02:34:00,38.3,33.9,29.15,SSW,197,20.0,27.0,84,0.00,,,0.00,Wunderground v.1.15,2013-10-09 10:34:00,
2013-10-09 02:39:00,38.3,33.6,29.16,South,191,19.0,27.0,83,0.00,,,0.00,Wunderground v.1.15,2013-10-09 10:39:00,
2013-10-09 02:45:00,38.3,33.6,29.16,SSW,212,20.0,30.0,83,0.00,,,0.00,Wunderground v.1.15,2013-10-09 10:45:00,
2013-10-09 02:51:00,38.3,33.9,29.17,SSW,204,19.0,22.0,84,0.00,,,0.00,Wunderground v.1.15,2013-10-09 10:51:00,
2013-10-09 02:56:00,38.3,33.6,29.17,SSW,194,18.0,28.0,83,0.00,,,0.00,Wunderground v.1.15,2013-10-09 10:56:00,
2013-10-09 03:02:00,38.3,33.6,29.17,SSW,201,18.0,27.0,83,0.00,,,0.00,Wunderground v.1.15,2013-10-09 11:02:00,
2013-10-09 03:07:00,38.3,33.6,29.18,SSW,199,17.0,27.0,83,0.00,,,0.00,Wunderground v.1.15,2013-10-09 11:07:00,
2013-10-09 03:13:00,38.3,33.6,29.18,SSW,197,18.0,27.0,83,0.00,,,0.00,Wunderground v.1.15,2013-10-09 11:13:00,
2013-10-09 03:18:00,38.2,33.5,29.18,SSW,210,18.0,27.0,83,0.00,,,0.00,Wunderground v.1.15,2013-10-09 11:18:00,
2013-10-09 03:24:00,38.3,33.3,29.19,SSW,202,17.0,27.0,82,0.00,,,0.00,Wunderground v.1.15,2013-10-09 11:24:00,
2013-10-09 03:30:00,38.2,33.2,29.19,SSW,208,18.0,18.0,82,0.00,,,0.00,Wunderground v.1.15,2013-10-09 11:30:00,
2013-10-09 03:35:00,38.1,32.8,29.19,SSW,202,17.0,27.0,81,0.00,,,0.00,Wunderground v.1.15,2013-10-09 11:35:00,
2013-10-09 03:41:00,38.0,32.7,29.20,SW,227,17.0,27.0,81,0.00,,,0.00,Wunderground v.1.15,2013-10-09 11:41:00,
2013-10-09 03:47:00,37.9,32.6,29.20,SSW,202,18.0,27.0,81,0.00,,,0.00,Wunderground v.1.15,2013-10-09 11:47:00,
2013-10-09 03:52:00,37.9,32.6,29.20,South,185,18.0,27.0,81,0.00,,,0.00,Wunderground v.1.15,2013-10-09 11:52:00,
2013-10-09 03:58:00,37.9,32.6,29.21,SSW,202,19.0,27.0,81,0.00,,,0.00,Wunderground v.1.15,2013-10-09 11:58:00,
2013-10-09 04:04:00,37.8,32.5,29.22,SSW,204,18.0,27.0,81,0.00,,,0.00,Wunderground v.1.15,2013-10-09 12:04:00,
2013-10-09 04:09:00,37.8,32.8,29.23,SSW,211,18.0,27.0,82,0.00,,,0.00,Wunderground v.1.15,2013-10-09 12:09:00,
2013-10-09 04:12:00,37.7,32.7,29.23,SSW,212,18.0,27.0,82,0.00,,,0.00,Wunderground v.1.15,2013-10-09 12:12:00,
2013-10-09 04:17:00,37.6,32.6,29.24,South,185,16.0,27.0,82,0.00,,,0.00,Wunderground v.1.15,2013-10-09 12:17:00,
2013-10-09 04:23:00,37.6,32.6,29.25,SSW,195,15.0,27.0,82,0.00,,,0.00,Wunderground v.1.15,2013-10-09 12:23:00,
2013-10-09 04:28:00,37.5,32.5,29.25,SSW,206,14.0,27.0,82,0.00,,,0.00,Wunderground v.1.15,2013-10-09 12:28:00,
2013-10-09 04:34:00,37.4,32.4,29.26,SSW,204,11.0,27.0,82,0.00,,,0.00,Wunderground v.1.15,2013-10-09 12:34:00,
2013-10-09 04:40:00,37.5,32.5,29.26,SSW,202,9.0,27.0,82,0.00,,,0.00,Wunderground v.1.15,2013-10-09 12:40:00,
2013-10-09 04:45:00,37.3,32.3,29.27,SSW,199,8.0,27.0,82,0.00,,,0.00,Wunderground v.1.15,2013-10-09 12:45:00,
2013-10-09 04:51:00,37.2,32.2,29.27,South,182,6.0,27.0,82,0.00,,,0.00,Wunderground v.1.15,2013-10-09 12:51:00,
2013-10-09 04:57:00,37.1,32.4,29.28,South,183,4.0,27.0,83,0.00,,,0.00,Wunderground v.1.15,2013-10-09 12:57:00,
2013-10-09 05:02:00,37.0,32.3,29.28,SSW,202,5.0,14.0,83,0.00,,,0.00,Wunderground v.1.15,2013-10-09 13:02:00,
2013-10-09 05:08:00,36.9,32.5,29.28,SSW,208,7.0,14.0,84,0.00,,,0.00,Wunderground v.1.15,2013-10-09 13:08:00,
2013-10-09 05:14:00,36.9,32.5,29.29,South,186,7.0,9.0,84,0.00,,,0.00,Wunderground v.1.15,2013-10-09 13:14:00,
2013-10-09 05:20:00,36.9,32.2,29.29,SSW,206,8.0,12.0,83,0.00,,,0.00,Wunderground v.1.15,2013-10-09 13:20:00,
2013-10-09 05:25:00,36.9,32.5,29.30,South,171,9.0,14.0,84,0.00,,,0.00,Wunderground v.1.15,2013-10-09 13:25:00,
2013-10-09 05:31:00,36.9,32.2,29.30,SSW,202,10.0,10.0,83,0.00,,,0.00,Wunderground v.1.15,2013-10-09 13:31:00,
2013-10-09 05:36:00,36.8,32.4,29.31,SW,218,9.0,11.0,84,0.00,,,0.00,Wunderground v.1.15,2013-10-09 13:36:00,
2013-10-09 05:42:00,36.9,32.5,29.31,SSW,199,10.0,13.0,84,0.00,,,0.00,Wunderground v.1.15,2013-10-09 13:42:00,
2013-10-09 05:48:00,36.9,32.2,29.31,SSW,204,11.0,17.0,83,0.00,,,0.00,Wunderground v.1.15,2013-10-09 13:48:00,
2013-10-09 05:53:00,36.9,32.2,29.31,SSW,204,12.0,18.0,83,0.00,,,0.00,Wunderground v.1.15,2013-10-09 13:53:00,
2013-10-09 05:59:00,36.9,32.2,29.31,SSW,203,12.0,18.0,83,0.00,,,0.00,Wunderground v.1.15,2013-10-09 13:59:00,
2013-10-09 06:05:00,36.8,32.1,29.32,SSW,195,13.0,18.0,83,0.00,,,0.00,Wunderground v.1.15,2013-10-09 14:05:00,
2013-10-09 06:10:00,36.8,32.1,29.32,SW,215,15.0,19.0,83,0.00,,,0.00,Wunderground v.1.15,2013-10-09 14:10:00,
2013-10-09 06:16:00,36.7,32.0,29.32,SW,221,17.0,20.0,83,0.00,,,0.00,Wunderground v.1.15,2013-10-09 14:16:00,
2013-10-09 06:22:00,36.7,32.0,29.33,SSW,195,17.0,17.0,83,0.00,,,0.00,Wunderground v.1.15,2013-10-09 14:22:00,
2013-10-09 06:27:00,36.6,31.9,29.33,SSW,202,17.0,22.0,83,0.00,,,0.00,Wunderground v.1.15,2013-10-09 14:27:00,
2013-10-09 06:33:00,36.7,31.7,29.33,SSW,196,18.0,20.0,82,0.00,,,0.00,Wunderground v.1.15,2013-10-09 14:33:00,
2013-10-09 06:38:00,36.7,31.7,29.34,South,187,16.0,20.0,82,0.00,,,0.00,Wunderground v.1.15,2013-10-09 14:38:00,
2013-10-09 06:44:00,36.6,31.6,29.35,South,191,14.0,16.0,82,0.00,,,0.00,Wunderground v.1.15,2013-10-09 14:44:00,
2013-10-09 06:50:00,36.6,31.6,29.35,SSW,199,14.0,19.0,82,0.00,,,0.00,Wunderground v.1.15,2013-10-09 14:50:00,
2013-10-09 06:55:00,36.7,31.7,29.35,SSW,211,16.0,21.0,82,0.00,,,0.00,Wunderground v.1.15,2013-10-09 14:55:00,
2013-10-09 07:01:00,36.8,31.8,29.35,SSW,204,18.0,18.0,82,0.00,,,0.00,Wunderground v.1.15,2013-10-09 15:01:00,
2013-10-09 07:07:00,36.7,31.4,29.36,SSW,206,18.0,22.0,81,0.00,,,0.00,Wunderground v.1.15,2013-10-09 15:07:00,
2013-10-09 07:12:00,36.7,31.7,29.37,SW,214,16.0,17.0,82,0.00,,,0.00,Wunderground v.1.15,2013-10-09 15:12:00,
2013-10-09 07:18:00,36.7,31.4,29.37,SSW,210,16.0,19.0,81,0.00,,,0.00,Wunderground v.1.15,2013-10-09 15:18:00,
2013-10-09 07:23:00,36.7,31.4,29.38,SSW,195,17.0,20.0,81,0.00,,,0.00,Wunderground v.1.15,2013-10-09 15:23:00,
2013-10-09 07:29:00,36.8,31.2,29.39,South,173,17.0,20.0,80,0.00,,,0.00,Wunderground v.1.15,2013-10-09 15:29:00,
2013-10-09 07:35:00,36.9,31.3,29.39,SSW,204,18.0,19.0,80,0.00,,,0.00,Wunderground v.1.15,2013-10-09 15:35:00,
2013-10-09 07:40:00,36.9,31.3,29.40,SW,217,18.0,24.0,80,0.00,,,0.00,Wunderground v.1.15,2013-10-09 15:40:00,
2013-10-09 07:46:00,36.8,31.2,29.40,SSW,197,18.0,24.0,80,0.00,,,0.00,Wunderground v.1.15,2013-10-09 15:46:00,
2013-10-09 07:51:00,36.9,31.0,29.40,SSW,204,19.0,22.0,79,0.00,,,0.00,Wunderground v.1.15,2013-10-09 15:51:00,
2013-10-09 07:57:00,36.8,30.9,29.41,SSW,197,20.0,23.0,79,0.00,,,0.00,Wunderground v.1.15,2013-10-09 15:57:00,
2013-10-09 08:02:00,36.9,30.7,29.41,SSW,197,21.0,23.0,78,0.00,,,0.00,Wunderground v.1.15,2013-10-09 16:02:00,
2013-10-09 08:08:00,36.9,30.7,29.42,SSW,204,22.0,23.0,78,0.00,,,0.00,Wunderground v.1.15,2013-10-09 16:08:00,
2013-10-09 08:14:00,36.9,30.7,29.43,SSW,206,20.0,23.0,78,0.00,,,0.00,Wunderground v.1.15,2013-10-09 16:14:00,
2013-10-09 08:19:00,36.8,30.6,29.43,SW,218,19.0,19.0,78,0.00,,,0.00,Wunderground v.1.15,2013-10-09 16:19:00,
2013-10-09 08:25:00,36.7,30.5,29.44,South,191,17.0,19.0,78,0.00,,,0.00,Wunderground v.1.15,2013-10-09 16:25:00,
2013-10-09 08:30:00,36.8,30.3,29.44,SSW,202,16.0,19.0,77,0.00,,,0.00,Wunderground v.1.15,2013-10-09 16:30:00,
2013-10-09 08:36:00,36.8,30.3,29.45,SSW,204,17.0,20.0,77,0.00,,,0.00,Wunderground v.1.15,2013-10-09 16:36:00,
2013-10-09 08:42:00,36.7,30.2,29.46,SSW,195,16.0,18.0,77,0.00,,,0.00,Wunderground v.1.15,2013-10-09 16:42:00,
2013-10-09 08:47:00,36.6,30.1,29.46,SSW,198,14.0,18.0,77,0.00,,,0.00,Wunderground v.1.15,2013-10-09 16:47:00,
2013-10-09 08:53:00,36.5,30.0,29.47,South,185,14.0,16.0,77,0.00,,,0.00,Wunderground v.1.15,2013-10-09 16:53:00,
2013-10-09 08:59:00,36.4,29.9,29.47,SSW,198,13.0,16.0,77,0.00,,,0.00,Wunderground v.1.15,2013-10-09 16:59:00,
2013-10-09 09:04:00,36.3,29.8,29.48,South,185,12.0,15.0,77,0.00,,,0.00,Wunderground v.1.15,2013-10-09 17:04:00,
2013-10-09 09:09:00,36.2,30.0,29.48,SSW,204,12.0,12.0,78,0.00,,,0.00,Wunderground v.1.15,2013-10-09 17:09:00,
2013-10-09 09:15:00,36.2,29.7,29.48,SSW,198,11.0,14.0,77,0.00,,,0.00,Wunderground v.1.15,2013-10-09 17:15:00,
2013-10-09 09:20:00,36.4,29.9,29.49,South,190,11.0,14.0,77,0.00,,,0.00,Wunderground v.1.15,2013-10-09 17:20:00,
2013-10-09 09:26:00,36.5,29.7,29.49,SSW,204,11.0,14.0,76,0.00,,,0.00,Wunderground v.1.15,2013-10-09 17:26:00,
2013-10-09 09:31:00,36.6,29.7,29.49,South,185,11.0,14.0,76,0.00,,,0.00,Wunderground v.1.15,2013-10-09 17:31:00,
2013-10-09 09:37:00,36.7,30.2,29.50,SSW,209,10.0,14.0,77,0.00,,,0.00,Wunderground v.1.15,2013-10-09 17:37:00,
2013-10-09 09:42:00,36.9,30.0,29.50,SSW,202,10.0,14.0,76,0.00,,,0.00,Wunderground v.1.15,2013-10-09 17:42:00,
2013-10-09 09:47:00,37.1,29.9,29.49,South,190,11.0,20.0,75,0.00,,,0.00,Wunderground v.1.15,2013-10-09 17:47:00,
2013-10-09 09:53:00,37.3,29.8,29.49,SSW,201,14.0,18.0,74,0.00,,,0.00,Wunderground v.1.15,2013-10-09 17:53:00,
2013-10-09 09:58:00,37.6,29.7,29.49,SSW,200,15.0,18.0,73,0.00,,,0.00,Wunderground v.1.15,2013-10-09 17:58:00,
2013-10-09 10:04:00,37.8,29.6,29.50,SSW,211,14.0,18.0,72,0.00,,,0.00,Wunderground v.1.15,2013-10-09 18:04:00,
2013-10-09 10:09:00,37.9,29.7,29.50,SSW,197,13.0,21.0,72,0.00,,,0.00,Wunderground v.1.15,2013-10-09 18:09:00,
2013-10-09 10:14:00,38.1,29.5,29.50,South,188,13.0,14.0,71,0.00,,,0.00,Wunderground v.1.15,2013-10-09 18:14:00,
2013-10-09 10:20:00,38.3,29.7,29.50,SSW,195,12.0,14.0,71,0.00,,,0.00,Wunderground v.1.15,2013-10-09 18:20:00,
2013-10-09 10:25:00,38.5,29.6,29.51,SSW,208,12.0,22.0,70,0.00,,,0.00,Wunderground v.1.15,2013-10-09 18:25:00,
2013-10-09 10:31:00,38.7,29.0,29.51,SSW,199,13.0,15.0,68,0.00,,,0.00,Wunderground v.1.15,2013-10-09 18:31:00,
2013-10-09 10:36:00,39.0,29.3,29.51,SW,216,13.0,15.0,68,0.00,,,0.00,Wunderground v.1.15,2013-10-09 18:36:00,
2013-10-09 10:42:00,39.1,29.1,29.52,South,183,12.0,14.0,67,0.00,,,0.00,Wunderground v.1.15,2013-10-09 18:42:00,
2013-10-09 10:47:00,39.3,28.9,29.52,SSW,197,12.0,15.0,66,0.00,,,0.00,Wunderground v.1.15,2013-10-09 18:47:00,
2013-10-09 10:52:00,39.4,28.6,29.53,South,185,13.0,18.0,65,0.00,,,0.00,Wunderground v.1.15,2013-10-09 18:52:00,
2013-10-09 10:58:00,39.7,29.3,29.53,SW,228,13.0,18.0,66,0.00,,,0.00,Wunderground v.1.15,2013-10-09 18:58:00,
2013-10-09 11:03:00,39.7,28.5,29.53,SSW,195,12.0,15.0,64,0.00,,,0.00,Wunderground v.1.15,2013-10-09 19:03:00,
2013-10-09 11:09:00,40.0,29.2,29.54,South,183,11.0,15.0,65,0.00,,,0.00,Wunderground v.1.15,2013-10-09 19:09:00,
2013-10-09 11:14:00,40.1,29.3,29.54,SSW,211,10.0,16.0,65,0.00,,,0.00,Wunderground v.1.15,2013-10-09 19:14:00,
2013-10-09 11:19:00,40.1,28.9,29.54,SSW,199,13.0,13.0,64,0.00,,,0.00,Wunderground v.1.15,2013-10-09 19:19:00,
2013-10-09 11:25:00,40.2,29.0,29.54,SSW,200,14.0,18.0,64,0.00,,,0.00,Wunderground v.1.15,2013-10-09 19:25:00,
2013-10-09 11:30:00,40.3,29.5,29.54,SSW,209,13.0,13.0,65,0.00,,,0.00,Wunderground v.1.15,2013-10-09 19:30:00,
2013-10-09 11:36:00,40.5,29.3,29.55,SSW,195,14.0,17.0,64,0.00,,,0.00,Wunderground v.1.15,2013-10-09 19:36:00,
2013-10-09 11:41:00,40.5,29.3,29.55,SSW,204,14.0,18.0,64,0.00,,,0.00,Wunderground v.1.15,2013-10-09 19:41:00,
2013-10-09 11:46:00,40.5,29.3,29.56,SSW,194,14.0,18.0,64,0.00,,,0.00,Wunderground v.1.15,2013-10-09 19:46:00,
2013-10-09 11:52:00,40.5,28.9,29.56,South,171,14.0,14.0,63,0.00,,,0.00,Wunderground v.1.15,2013-10-09 19:52:00,
2013-10-09 11:57:00,40.5,28.5,29.56,South,183,13.0,20.0,62,0.00,,,0.00,Wunderground v.1.15,2013-10-09 19:57:00,
2013-10-09 12:03:00,40.3,28.3,29.56,SSW,196,17.0,21.0,62,0.00,,,0.00,Wunderground v.1.15,2013-10-09 20:03:00,
2013-10-09 12:09:00,40.4,28.4,29.55,SSW,192,18.0,21.0,62,0.00,,,0.00,Wunderground v.1.15,2013-10-09 20:09:00,
2013-10-09 12:15:00,40.5,28.5,29.56,SSW,209,17.0,19.0,62,0.00,,,0.00,Wunderground v.1.15,2013-10-09 20:15:00,
2013-10-09 12:20:00,40.8,27.6,29.57,SSW,192,14.0,14.0,59,0.00,,,0.00,Wunderground v.1.15,2013-10-09 20:20:00,
2013-10-09 12:26:00,40.9,28.5,29.57,South,183,13.0,19.0,61,0.00,,,0.00,Wunderground v.1.15,2013-10-09 20:26:00,
2013-10-09 12:31:00,41.1,28.3,29.58,South,188,11.0,14.0,60,0.00,,,0.00,Wunderground v.1.15,2013-10-09 20:31:00,
2013-10-09 12:36:00,41.0,29.0,29.58,SW,225,11.0,14.0,62,0.00,,,0.00,Wunderground v.1.15,2013-10-09 20:36:00,
2013-10-09 12:42:00,40.9,28.9,29.58,SSW,199,13.0,16.0,62,0.00,,,0.00,Wunderground v.1.15,2013-10-09 20:42:00,
2013-10-09 12:47:00,41.1,28.3,29.58,SSW,197,15.0,20.0,60,0.00,,,0.00,Wunderground v.1.15,2013-10-09 20:47:00,
2013-10-09 12:53:00,40.9,28.1,29.58,SSW,201,17.0,24.0,60,0.00,,,0.00,Wunderground v.1.15,2013-10-09 20:53:00,
2013-10-09 12:58:00,41.1,28.3,29.58,SSW,192,17.0,24.0,60,0.00,,,0.00,Wunderground v.1.15,2013-10-09 20:58:00,
2013-10-09 13:04:00,41.1,28.7,29.59,SSW,211,16.0,20.0,61,0.00,,,0.00,Wunderground v.1.15,2013-10-09 21:04:00,
2013-10-09 13:09:00,41.5,28.6,29.59,South,191,14.0,18.0,60,0.00,,,0.00,Wunderground v.1.15,2013-10-09 21:09:00,
2013-10-09 13:15:00,41.5,28.2,29.59,SW,224,14.0,21.0,59,0.00,,,0.00,Wunderground v.1.15,2013-10-09 21:15:00,
2013-10-09 13:20:00,41.6,28.3,29.59,SSW,198,15.0,19.0,59,0.00,,,0.00,Wunderground v.1.15,2013-10-09 21:20:00,
2013-10-09 13:26:00,41.9,28.2,29.59,South,190,16.0,22.0,58,0.00,,,0.00,Wunderground v.1.15,2013-10-09 21:26:00,
2013-10-09 13:31:00,42.0,27.9,29.59,South,174,15.0,17.0,57,0.00,,,0.00,Wunderground v.1.15,2013-10-09 21:31:00,
2013-10-09 13:37:00,42.2,28.9,29.59,South,182,13.0,22.0,59,0.00,,,0.00,Wunderground v.1.15,2013-10-09 21:37:00,
2013-10-09 13:42:00,41.8,28.5,29.59,South,183,15.0,20.0,59,0.00,,,0.00,Wunderground v.1.15,2013-10-09 21:42:00,
2013-10-09 13:47:00,41.8,27.7,29.60,SW,215,18.0,22.0,57,0.00,,,0.00,Wunderground v.1.15,2013-10-09 21:47:00,
2013-10-09 13:53:00,41.8,28.1,29.60,SSW,192,18.0,23.0,58,0.00,,,0.00,Wunderground v.1.15,2013-10-09 21:53:00,
2013-10-09 13:58:00,41.8,28.1,29.60,South,181,19.0,24.0,58,0.00,,,0.00,Wunderground v.1.15,2013-10-09 21:58:00,
2013-10-09 14:04:00,41.8,28.5,29.60,South,188,20.0,24.0,59,0.00,,,0.00,Wunderground v.1.15,2013-10-09 22:04:00,
2013-10-09 14:09:00,42.2,28.9,29.60,SW,235,18.0,24.0,59,0.00,,,0.00,Wunderground v.1.15,2013-10-09 22:09:00,
2013-10-09 14:15:00,42.1,27.1,29.61,SSW,192,16.0,19.0,55,0.00,,,0.00,Wunderground v.1.15,2013-10-09 22:15:00,
2013-10-09 14:20:00,41.8,27.7,29.61,SW,223,15.0,15.0,57,0.00,,,0.00,Wunderground v.1.15,2013-10-09 22:20:00,
2013-10-09 14:25:00,41.7,27.1,29.61,SSW,200,14.0,18.0,56,0.00,,,0.00,Wunderground v.1.15,2013-10-09 22:25:00,
2013-10-09 14:31:00,42.0,27.0,29.61,SSW,201,16.0,21.0,55,0.00,,,0.00,Wunderground v.1.15,2013-10-09 22:31:00,
2013-10-09 14:36:00,42.2,26.7,29.60,SSW,195,18.0,21.0,54,0.00,,,0.00,Wunderground v.1.15,2013-10-09 22:36:00,
2013-10-09 14:42:00,42.6,27.5,29.60,SSW,199,18.0,21.0,55,0.00,,,0.00,Wunderground v.1.15,2013-10-09 22:42:00,
2013-10-09 14:47:00,42.4,26.5,29.60,SSW,199,17.0,21.0,53,0.00,,,0.00,Wunderground v.1.15,2013-10-09 22:47:00,
2013-10-09 14:53:00,42.5,27.0,29.61,SSW,211,15.0,16.0,54,0.00,,,0.00,Wunderground v.1.15,2013-10-09 22:53:00,
2013-10-09 14:59:00,42.7,26.3,29.61,SSW,200,13.0,16.0,52,0.00,,,0.00,Wunderground v.1.15,2013-10-09 22:59:00,
2013-10-09 15:05:00,43.0,27.9,29.61,SSW,207,11.0,14.0,55,0.00,,,0.00,Wunderground v.1.15,2013-10-09 23:05:00,
2013-10-09 15:10:00,43.2,27.7,29.60,SW,215,11.0,18.0,54,0.00,,,0.00,Wunderground v.1.15,2013-10-09 23:10:00,
2013-10-09 15:15:00,42.8,26.8,29.60,SSW,200,14.0,18.0,53,0.00,,,0.00,Wunderground v.1.15,2013-10-09 23:15:00,
2013-10-09 15:21:00,43.0,27.9,29.61,South,176,14.0,16.0,55,0.00,,,0.00,Wunderground v.1.15,2013-10-09 23:21:00,
2013-10-09 15:26:00,43.0,27.0,29.61,SSW,204,12.0,16.0,53,0.00,,,0.00,Wunderground v.1.15,2013-10-09 23:26:00,
2013-10-09 15:32:00,43.0,27.0,29.62,SSW,192,12.0,14.0,53,0.00,,,0.00,Wunderground v.1.15,2013-10-09 23:32:00,
2013-10-09 15:37:00,42.6,26.6,29.62,SSW,194,13.0,21.0,53,0.00,,,0.00,Wunderground v.1.15,2013-10-09 23:37:00,
2013-10-09 15:42:00,42.3,26.8,29.62,SSW,206,16.0,20.0,54,0.00,,,0.00,Wunderground v.1.15,2013-10-09 23:42:00,
2013-10-09 15:48:00,42.4,27.4,29.62,SSW,211,16.0,20.0,55,0.00,,,0.00,Wunderground v.1.15,2013-10-09 23:48:00,
2013-10-09 15:54:00,42.5,28.8,29.62,SSW,197,16.0,22.0,58,0.00,,,0.00,Wunderground v.1.15,2013-10-09 23:54:00,
2013-10-09 15:59:00,42.7,28.1,29.62,SSW,192,15.0,22.0,56,0.00,,,0.00,Wunderground v.1.15,2013-10-09 23:59:00,
2013-10-09 16:04:00,42.3,27.3,29.62,SSW,193,17.0,20.0,55,0.00,,,0.00,Wunderground v.1.15,2013-10-10 00:04:00,
2013-10-09 16:10:00,42.3,28.1,29.62,SSW,198,17.0,22.0,57,0.00,,,0.00,Wunderground v.1.15,2013-10-10 00:10:00,
2013-10-09 16:15:00,42.0,27.9,29.62,SSW,203,18.0,22.0,57,0.00,,,0.00,Wunderground v.1.15,2013-10-10 00:15:00,
2013-10-09 16:21:00,42.0,27.4,29.62,South,175,19.0,19.0,56,0.00,,,0.00,Wunderground v.1.15,2013-10-10 00:21:00,
2013-10-09 16:26:00,42.4,28.2,29.62,SSW,192,16.0,20.0,57,0.00,,,0.00,Wunderground v.1.15,2013-10-10 00:26:00,
2013-10-09 16:32:00,42.1,27.9,29.63,SSW,198,16.0,18.0,57,0.00,,,0.00,Wunderground v.1.15,2013-10-10 00:32:00,
2013-10-09 16:37:00,42.2,28.5,29.63,South,190,16.0,18.0,58,0.00,,,0.00,Wunderground v.1.15,2013-10-10 00:37:00,
2013-10-09 16:43:00,42.2,28.0,29.63,South,185,14.0,17.0,57,0.00,,,0.00,Wunderground v.1.15,2013-10-10 00:43:00,
2013-10-09 16:48:00,42.2,27.2,29.63,SSW,194,14.0,17.0,55,0.00,,,0.00,Wunderground v.1.15,2013-10-10 00:48:00,
2013-10-09 16:54:00,42.3,27.7,29.63,SSW,197,13.0,15.0,56,0.00,,,0.00,Wunderground v.1.15,2013-10-10 00:54:00,
2013-10-09 16:59:00,42.2,27.6,29.63,SSW,196,12.0,18.0,56,0.00,,,0.00,Wunderground v.1.15,2013-10-10 00:59:00,
2013-10-09 17:04:00,42.2,27.2,29.63,SSW,211,13.0,14.0,55,0.00,,,0.00,Wunderground v.1.15,2013-10-10 01:04:00,
2013-10-09 17:10:00,42.2,27.6,29.63,SSW,207,11.0,15.0,56,0.00,,,0.00,Wunderground v.1.15,2013-10-10 01:10:00,
2013-10-09 17:15:00,42.0,26.5,29.64,SSW,195,11.0,15.0,54,0.00,,,0.00,Wunderground v.1.15,2013-10-10 01:15:00,
2013-10-09 17:21:00,42.0,27.4,29.63,SSW,202,11.0,14.0,56,0.00,,,0.00,Wunderground v.1.15,2013-10-10 01:21:00,
2013-10-09 17:26:00,41.8,28.1,29.64,SSW,213,12.0,17.0,58,0.00,,,0.00,Wunderground v.1.15,2013-10-10 01:26:00,
2013-10-09 17:32:00,41.7,27.6,29.64,SSW,195,13.0,14.0,57,0.00,,,0.00,Wunderground v.1.15,2013-10-10 01:32:00,
2013-10-09 17:37:00,41.9,28.6,29.65,South,188,9.0,14.0,59,0.00,,,0.00,Wunderground v.1.15,2013-10-10 01:37:00,
2013-10-09 17:43:00,41.9,28.6,29.65,South,186,8.0,14.0,59,0.00,,,0.00,Wunderground v.1.15,2013-10-10 01:43:00,
2013-10-09 17:49:00,41.6,27.5,29.65,South,188,10.0,15.0,57,0.00,,,0.00,Wunderground v.1.15,2013-10-10 01:49:00,
2013-10-09 17:54:00,41.5,27.8,29.65,South,190,11.0,16.0,58,0.00,,,0.00,Wunderground v.1.15,2013-10-10 01:54:00,
2013-10-09 18:00:00,41.4,27.7,29.65,South,188,11.0,14.0,58,0.00,,,0.00,Wunderground v.1.15,2013-10-10 02:00:00,
2013-10-09 18:05:00,41.3,27.6,29.65,SSW,198,10.0,15.0,58,0.00,,,0.00,Wunderground v.1.15,2013-10-10 02:05:00,
2013-10-09 18:11:00,41.0,27.3,29.65,SSW,198,12.0,14.0,58,0.00,,,0.00,Wunderground v.1.15,2013-10-10 02:11:00,
2013-10-09 18:16:00,40.8,28.0,29.65,SSW,201,12.0,16.0,60,0.00,,,0.00,Wunderground v.1.15,2013-10-10 02:16:00,
2013-10-09 18:22:00,40.6,28.2,29.65,SSW,202,10.0,14.0,61,0.00,,,0.00,Wunderground v.1.15,2013-10-10 02:22:00,
2013-10-09 18:27:00,40.3,28.7,29.66,SSE,168,9.0,15.0,63,0.00,,,0.00,Wunderground v.1.15,2013-10-10 02:27:00,
2013-10-09 18:32:00,39.8,29.0,29.66,South,171,6.0,14.0,65,0.00,,,0.00,Wunderground v.1.15,2013-10-10 02:32:00,
2013-10-09 18:38:00,39.4,29.0,29.66,South,188,6.0,14.0,66,0.00,,,0.00,Wunderground v.1.15,2013-10-10 02:38:00,
2013-10-09 18:44:00,39.0,29.7,29.66,South,177,6.0,14.0,69,0.00,,,0.00,Wunderground v.1.15,2013-10-10 02:44:00,
2013-10-09 18:49:00,38.9,29.6,29.66,South,186,8.0,14.0,69,0.00,,,0.00,Wunderground v.1.15,2013-10-10 02:49:00,
2013-10-09 18:55:00,38.8,29.5,29.66,SSW,197,8.0,14.0,69,0.00,,,0.00,Wunderground v.1.15,2013-10-10 02:55:00,
2013-10-09 19:00:00,38.6,29.7,29.66,South,173,7.0,7.0,70,0.00,,,0.00,Wunderground v.1.15,2013-10-10 03:00:00,
2013-10-09 19:06:00,38.3,29.7,29.67,SSW,192,6.0,14.0,71,0.00,,,0.00,Wunderground v.1.15,2013-10-10 03:06:00,
2013-10-09 19:12:00,38.0,29.8,29.67,SSW,210,6.0,14.0,72,0.00,,,0.00,Wunderground v.1.15,2013-10-10 03:12:00,
2013-10-09 19:17:00,37.9,29.7,29.67,SSW,202,8.0,14.0,72,0.00,,,0.00,Wunderground v.1.15,2013-10-10 03:17:00,
2013-10-09 19:23:00,38.0,29.8,29.67,SSW,198,10.0,14.0,72,0.00,,,0.00,Wunderground v.1.15,2013-10-10 03:23:00,
2013-10-09 19:28:00,37.9,30.0,29.67,SSW,201,11.0,14.0,73,0.00,,,0.00,Wunderground v.1.15,2013-10-10 03:28:00,
2013-10-09 19:34:00,37.8,29.9,29.67,South,189,10.0,14.0,73,0.00,,,0.00,Wunderground v.1.15,2013-10-10 03:34:00,
2013-10-09 19:40:00,37.7,29.8,29.67,SSW,202,9.0,14.0,73,0.00,,,0.00,Wunderground v.1.15,2013-10-10 03:40:00,
2013-10-09 19:45:00,37.7,30.2,29.67,SSW,195,9.0,14.0,74,0.00,,,0.00,Wunderground v.1.15,2013-10-10 03:45:00,
2013-10-09 19:51:00,37.7,30.2,29.67,South,188,10.0,14.0,74,0.00,,,0.00,Wunderground v.1.15,2013-10-10 03:51:00,
2013-10-09 19:56:00,37.7,30.2,29.67,SSW,192,10.0,14.0,74,0.00,,,0.00,Wunderground v.1.15,2013-10-10 03:56:00,
2013-10-09 20:01:00,37.5,30.3,29.67,SSW,199,9.0,14.0,75,0.00,,,0.00,Wunderground v.1.15,2013-10-10 04:01:00,
2013-10-09 20:03:00,37.5,30.3,29.68,SSW,192,9.0,14.0,75,0.00,,,0.00,Wunderground v.1.15,2013-10-10 04:03:00,
2013-10-09 20:05:00,37.6,30.4,29.67,South,178,9.0,14.0,75,0.00,,,0.00,Wunderground v.1.15,2013-10-10 04:05:00,
2013-10-09 20:07:00,37.6,30.4,29.67,SSW,195,9.0,14.0,75,0.00,,,0.00,Wunderground v.1.15,2013-10-10 04:07:00,
2013-10-09 20:09:00,37.6,30.4,29.67,SSW,201,9.0,14.0,75,0.00,,,0.00,Wunderground v.1.15,2013-10-10 04:09:00,
2013-10-09 20:10:00,37.6,30.4,29.67,SSW,206,9.0,14.0,75,0.00,,,0.00,Wunderground v.1.15,2013-10-10 04:10:00,
2013-10-09 20:15:00,37.7,30.2,29.67,SSW,197,10.0,14.0,74,0.00,,,0.00,Wunderground v.1.15,2013-10-10 04:15:00,
2013-10-09 20:21:00,37.8,30.3,29.67,SSW,204,10.0,14.0,74,0.00,,,0.00,Wunderground v.1.15,2013-10-10 04:21:00,
2013-10-09 20:26:00,37.6,30.4,29.67,SSW,197,9.0,14.0,75,0.00,,,0.00,Wunderground v.1.15,2013-10-10 04:26:00,
2013-10-09 20:32:00,37.5,30.3,29.67,South,175,7.0,14.0,75,0.00,,,0.00,Wunderground v.1.15,2013-10-10 04:32:00,
2013-10-09 20:38:00,36.9,30.0,29.67,SSE,167,3.0,14.0,76,0.00,,,0.00,Wunderground v.1.15,2013-10-10 04:38:00,
2013-10-09 20:44:00,36.4,29.6,29.67,SSE,167,1.0,14.0,76,0.00,,,0.00,Wunderground v.1.15,2013-10-10 04:44:00,
2013-10-09 20:50:00,36.1,29.6,29.67,WSW,240,1.0,14.0,77,0.00,,,0.00,Wunderground v.1.15,2013-10-10 04:50:00,
2013-10-09 20:55:00,36.0,29.8,29.67,West,265,2.0,14.0,78,0.00,,,0.00,Wunderground v.1.15,2013-10-10 04:55:00,
2013-10-09 21:01:00,36.0,29.8,29.67,West,265,3.0,14.0,78,0.00,,,0.00,Wunderground v.1.15,2013-10-10 05:01:00,
2013-10-09 21:06:00,36.4,30.2,29.67,SW,234,5.0,14.0,78,0.00,,,0.00,Wunderground v.1.15,2013-10-10 05:06:00,
2013-10-09 21:12:00,36.7,29.8,29.67,SW,221,6.0,14.0,76,0.00,,,0.00,Wunderground v.1.15,2013-10-10 05:12:00,
2013-10-09 21:17:00,36.9,30.0,29.67,SW,218,5.0,14.0,76,0.00,,,0.00,Wunderground v.1.15,2013-10-10 05:17:00,
2013-10-09 21:23:00,36.8,30.3,29.67,SSW,209,6.0,14.0,77,0.00,,,0.00,Wunderground v.1.15,2013-10-10 05:23:00,
2013-10-09 21:28:00,36.7,30.2,29.67,SSW,192,6.0,14.0,77,0.00,,,0.00,Wunderground v.1.15,2013-10-10 05:28:00,
2013-10-09 21:33:00,36.3,30.1,29.67,SSW,192,5.0,14.0,78,0.00,,,0.00,Wunderground v.1.15,2013-10-10 05:33:00,
2013-10-09 21:39:00,36.0,30.1,29.66,South,183,5.0,14.0,79,0.00,,,0.00,Wunderground v.1.15,2013-10-10 05:39:00,
2013-10-09 21:44:00,36.0,30.4,29.66,South,183,5.0,14.0,80,0.00,,,0.00,Wunderground v.1.15,2013-10-10 05:44:00,
2013-10-09 21:50:00,36.4,30.8,29.66,South,183,6.0,14.0,80,0.00,,,0.00,Wunderground v.1.15,2013-10-10 05:50:00,
2013-10-09 21:55:00,36.7,30.8,29.66,SSW,195,7.0,14.0,79,0.00,,,0.00,Wunderground v.1.15,2013-10-10 05:55:00,
2013-10-09 22:01:00,36.9,31.0,29.67,South,186,5.0,14.0,79,0.00,,,0.00,Wunderground v.1.15,2013-10-10 06:01:00,
2013-10-09 22:07:00,36.8,30.9,29.67,South,189,5.0,14.0,79,0.00,,,0.00,Wunderground v.1.15,2013-10-10 06:07:00,
2013-10-09 22:12:00,36.8,30.9,29.67,SSW,193,5.0,14.0,79,0.00,,,0.00,Wunderground v.1.15,2013-10-10 06:12:00,
2013-10-09 22:18:00,37.0,31.4,29.67,SSW,194,6.0,14.0,80,0.00,,,0.00,Wunderground v.1.15,2013-10-10 06:18:00,
2013-10-09 22:24:00,36.9,31.6,29.67,SSW,202,5.0,14.0,81,0.00,,,0.00,Wunderground v.1.15,2013-10-10 06:24:00,
2013-10-09 22:29:00,36.8,31.8,29.67,SSW,202,5.0,14.0,82,0.00,,,0.00,Wunderground v.1.15,2013-10-10 06:29:00,
2013-10-09 22:34:00,36.8,31.8,29.67,SW,215,7.0,14.0,82,0.00,,,0.00,Wunderground v.1.15,2013-10-10 06:34:00,
2013-10-09 22:40:00,36.8,32.1,29.67,SSW,208,7.0,7.0,83,0.00,,,0.00,Wunderground v.1.15,2013-10-10 06:40:00,
2013-10-09 22:45:00,36.7,32.0,29.67,SSW,192,6.0,14.0,83,0.00,,,0.00,Wunderground v.1.15,2013-10-10 06:45:00,
2013-10-09 22:51:00,36.7,32.3,29.68,South,191,5.0,14.0,84,0.00,,,0.00,Wunderground v.1.15,2013-10-10 06:51:00,
2013-10-09 22:57:00,36.7,32.3,29.68,South,180,5.0,14.0,84,0.00,,,0.00,Wunderground v.1.15,2013-10-10 06:57:00,
2013-10-09 23:03:00,36.8,32.7,29.68,SSW,195,4.0,14.0,85,0.00,,,0.00,Wunderground v.1.15,2013-10-10 07:03:00,
2013-10-09 23:08:00,37.1,32.7,29.68,SSW,192,5.0,14.0,84,0.00,,,0.00,Wunderground v.1.15,2013-10-10 07:08:00,
2013-10-09 23:14:00,37.2,33.1,29.68,SSW,200,5.0,14.0,85,0.00,,,0.00,Wunderground v.1.15,2013-10-10 07:14:00,
2013-10-09 23:20:00,37.1,32.7,29.68,SSW,198,4.0,14.0,84,0.00,,,0.00,Wunderground v.1.15,2013-10-10 07:20:00,
2013-10-09 23:25:00,37.2,33.1,29.68,South,183,4.0,14.0,85,0.00,,,0.00,Wunderground v.1.15,2013-10-10 07:25:00,
2013-10-09 23:30:00,37.3,33.2,29.68,South,189,3.0,3.0,85,0.00,,,0.00,Wunderground v.1.15,2013-10-10 07:30:00,
2013-10-09 23:36:00,37.4,33.3,29.69,SSW,199,3.0,14.0,85,0.00,,,0.00,Wunderground v.1.15,2013-10-10 07:36:00,
2013-10-09 23:42:00,37.3,33.2,29.68,South,190,3.0,14.0,85,0.00,,,0.00,Wunderground v.1.15,2013-10-10 07:42:00,
2013-10-09 23:47:00,37.3,33.2,29.68,SSW,204,3.0,14.0,85,0.00,,,0.00,Wunderground v.1.15,2013-10-10 07:47:00,
2013-10-09 23:52:00,37.3,33.5,29.68,South,171,3.0,14.0,86,0.00,,,0.00,Wunderground v.1.15,2013-10-10 07:52:00,
2013-10-09 23:58:00,37.3,33.5,29.68,South,185,2.0,14.0,86,0.00,,,0.00,Wunderground v.1.15,2013-10-10 07:58:00,